This demonstration page uses our WeatherBlox Daily Observations layout. Learn more.

Left ArrowRight Arrow

40.92945, -100.16068

Hourly Observations for June 29, 2022

Temp ( °F °C ) Dew Point ( °F °C ) Humidity (%) Winds ( mph kmh ) Pressure ( in mb ) Visibility ( mi km ) Precip ( " mm )
12:15 am 00:15 Clear 73 22.5 54 12 52 52 S 9 15 30.01 1016 10 16 0.00 0.00
12:35 am 00:35 Clear 72 22.4 53 11.6 51 51 S 10 17 30.01 1016 10 16 0.00 0.00
12:55 am 00:55 Clear 72 22 52 11.2 50 50 S 6 9 30.01 1016 10 16 0.00 0.00
1:15 am 01:15 Clear 72 22.3 51 10.8 48 48 SSW 9 15 30.00 1016 10 16 0.00 0.00
1:35 am 01:35 Clear 72 22.3 51 10.6 48 48 SSW 12 19 30.00 1016 10 16 0.00 0.00
1:55 am 01:55 Clear 71 21.8 51 10.5 49 49 S 8 13 30.01 1016 10 16 0.00 0.00
2:15 am 02:15 Clear 70 21 51 10.5 51 51 S 7 11 30.01 1016 10 16 0.00 0.00
2:35 am 02:35 Clear 69 20.6 51 10.5 53 53 S 6 9 30.02 1016 10 16 0.00 0.00
2:55 am 02:55 Clear 69 20.7 51 10.6 53 53 S 6 9 30.02 1016 10 16 0.00 0.00
3:15 am 03:15 Clear 70 21 53 11.4 54 54 S 7 11 30.01 1016 10 16 0.00 0.00
3:35 am 03:35 Clear 72 22.1 54 12.2 54 54 SSW 9 15 30.00 1016 10 16 0.00 0.00
3:55 am 03:55 Clear 72 22.2 55 12.5 54 54 SSW 12 19 30.00 1016 10 16 0.00 0.00
4:15 am 04:15 Clear 72 22 55 12.8 56 56 SSW 13 20 30.00 1016 10 16 0.00 0.00
4:35 am 04:35 Clear 71 21.7 56 13.1 58 58 SSW 10 17 30.01 1016 10 16 0.00 0.00
4:55 am 04:55 Clear 71 21.5 56 13.5 60 60 SSW 10 17 30.01 1016 10 16 0.00 0.00
5:15 am 05:15 Clear 71 21.5 57 13.7 61 61 SSW 9 15 30.01 1016 10 16 0.00 0.00
5:35 am 05:35 Clear 69 20.8 57 13.8 64 64 S 6 9 30.01 1016 10 16 0.00 0.00
5:55 am 05:55 Clear 68 20.1 57 14 68 68 SSE 5 7 30.02 1017 10 16 0.00 0.00
6:15 am 06:15 Sunny 69 20.3 58 14.2 68 68 S 6 9 30.02 1017 10 16 0.00 0.00
6:35 am 06:35 Sunny 68 20 58 14.2 69 69 SSE 6 9 30.02 1017 10 16 0.00 0.00
6:55 am 06:55 Sunny 69 20.4 58 14.5 69 69 SE 5 7 30.02 1017 10 16 0.00 0.00
7:35 am 07:35 Sunny 70 20.9 59 14.8 68 68 SSE 5 7 30.01 1016 10 16 0.00 0.00
7:55 am 07:55 Sunny 71 21.9 59 15 65 65 S 8 13 30.01 1016 10 16 0.00 0.00
8:15 am 08:15 Sunny 72 22.4 60 15.3 64 64 S 8 13 30.00 1016 10 16 0.00 0.00
8:35 am 08:35 Sunny 74 23.2 60 15.6 62 62 S 8 13 29.98 1015 10 16 0.00 0.00
8:55 am 08:55 Sunny 76 24.5 61 16.1 60 60 SSW 10 17 29.98 1015 10 16 0.00 0.00
9:15 am 09:15 Sunny 78 25.4 62 16.4 58 58 SSW 13 20 29.98 1015 10 16 0.00 0.00
9:35 am 09:35 Sunny 79 26.3 62 16.6 55 55 SSW 14 22 29.97 1015 10 16 0.00 0.00
9:55 am 09:55 Sunny 81 27.2 62 16.5 52 52 SSW 17 28 29.95 1014 10 16 0.00 0.00
10:15 am 10:15 Sunny 82 27.9 62 16.4 50 50 S 15 24 29.94 1014 10 16 0.00 0.00
10:35 am 10:35 Sunny 84 28.8 61 16.2 46 46 SSW 17 28 29.93 1013 10 16 0.00 0.00
10:55 am 10:55 Sunny 86 29.8 61 15.9 43 43 SSW 18 30 29.92 1013 10 16 0.00 0.00
11:15 am 11:15 Sunny 87 30.6 61 16.2 42 42 S 18 30 29.90 1013 10 16 0.00 0.00
11:35 am 11:35 Sunny 90 32.4 60 15.3 36 36 SSW 16 26 29.89 1012 10 16 0.00 0.00
11:55 am 11:55 Sunny 93 33.7 48 8.7 21 21 S 28 44 29.87 1011 10 16 0.00 0.00
12:15 pm 12:15 Sunny 93 34.1 50 9.9 23 23 S 20 31 29.86 1011 10 16 0.00 0.00
12:35 pm 12:35 Sunny 95 34.8 49 9.7 21 21 S 28 44 29.85 1011 10 16 0.00 0.00
12:55 pm 12:55 Sunny 95 34.9 49 9.4 21 21 S 25 41 29.84 1011 10 16 0.00 0.00
1:15 pm 13:15 Sunny 95 35.1 48 9 20 20 S 24 39 29.84 1010 10 16 0.00 0.00
1:35 pm 13:35 Sunny 96 35.4 48 8.7 19 19 S 28 44 29.83 1010 10 16 0.00 0.00
1:55 pm 13:55 Sunny 95 35.1 47 8.3 19 19 S 24 39 29.83 1010 10 16 0.00 0.00
2:15 pm 14:15 Sunny 97 36 47 8.1 18 18 S 28 44 29.81 1010 10 16 0.00 0.00
2:35 pm 14:35 Sunny 97 36 47 8.5 18 18 S 30 48 29.79 1009 10 16 0.00 0.00
2:55 pm 14:55 Sunny 97 36.3 47 8.4 18 18 S 28 44 29.78 1008 10 16 0.00 0.00
3:15 pm 15:15 Sunny 96 35.3 49 9.3 20 20 S 26 43 29.79 1009 7 11 0.00 0.00
3:35 pm 15:35 Sunny 96 35.4 50 10.2 21 21 S 21 33 29.78 1008 7 11 0.00 0.00
3:55 pm 15:55 Sunny 98 36.5 52 11.2 22 22 S 26 43 29.76 1008 7 11 0.00 0.00
4:15 pm 16:15 Sunny 98 36.6 54 12.2 23 23 S 23 37 29.75 1007 7 11 0.00 0.00
4:35 pm 16:35 Sunny 96 35.7 53 11.6 23 23 S 24 39 29.75 1008 7 11 0.00 0.00
4:55 pm 16:55 Sunny 97 36 54 12 23 23 S 25 41 29.75 1008 7 11 0.00 0.00
5:15 pm 17:15 Sunny 96 35.6 55 13 26 26 S 24 39 29.75 1007 7 11 0.00 0.00
5:35 pm 17:35 Sunny 95 35.1 56 13.5 27 27 SSE 24 39 29.75 1007 7 11 0.00 0.00
5:55 pm 17:55 Sunny 95 35.1 55 13 26 26 S 26 43 29.74 1007 10 16 0.00 0.00
6:15 pm 18:15 Sunny 95 34.8 55 12.9 27 27 S 25 41 29.73 1007 7 11 0.00 0.00
6:35 pm 18:35 Sunny 93 33.8 57 13.7 30 30 SSE 21 33 29.73 1007 7 11 0.00 0.00
6:55 pm 18:55 Sunny 92 33.5 58 14.5 32 32 SSE 16 26 29.73 1007 10 16 0.00 0.00
7:15 pm 19:15 Sunny 91 32.8 57 14 32 32 SSE 23 37 29.73 1007 7 11 0.00 0.00
7:35 pm 19:35 Sunny 89 31.9 58 14.3 34 34 SSE 20 31 29.73 1007 7 11 0.00 0.00
7:55 pm 19:55 Sunny 89 31.5 58 14.6 36 36 SSE 18 30 29.74 1007 7 11 0.00 0.00
8:15 pm 20:15 Sunny 88 31.1 59 14.8 37 37 SSE 20 31 29.74 1007 7 11 0.00 0.00
8:35 pm 20:35 Sunny 87 30.8 58 14.5 37 37 S 18 30 29.74 1007 7 11 0.00 0.00
8:55 pm 20:55 Sunny 87 30.5 58 14.2 37 37 S 20 31 29.75 1007 7 11 0.00 0.00
9:15 pm 21:15 Clear 86 30.1 57 14.1 38 38 SSE 18 30 29.75 1007 7 11 0.00 0.00
9:35 pm 21:35 Clear 85 29.7 57 14 38 38 S 23 37 29.75 1008 10 16 0.00 0.00
9:55 pm 21:55 Clear 85 29.3 57 14 39 39 S 24 39 29.76 1008 7 11 0.00 0.00
10:15 pm 22:15 Clear 84 29 57 13.9 40 40 S 24 39 29.77 1008 10 16 0.00 0.00
10:35 pm 22:35 Clear 83 28.6 57 13.7 40 40 S 25 41 29.77 1008 10 16 0.00 0.00
10:55 pm 22:55 Clear 83 28.3 56 13.5 40 40 S 25 41 29.78 1009 7 11 0.00 0.00
11:15 pm 23:15 Clear 82 28 56 13.5 41 41 S 23 37 29.80 1009 7 11 0.00 0.00
11:35 pm 23:35 Clear 82 27.6 56 13.4 42 42 S 22 35 29.80 1009 10 16 0.00 0.00
11:55 pm 23:55 Clear 81 27.3 56 13.1 42 42 S 24 39 29.80 1009 10 16 0.00 0.00

Powered by AerisWeather